Weather in Baychurovo

Russia / Voronezh Oblast     51°20′32″N   42°41′09″E
temp.,
°C
wind,
m/s
gust,
m/s
humid.,
%
clouds,
%
prec.,
mm/h
press.,
hPa
HPBL,
m
28 september, tue
tue2800:00+7n359394 0.0 1017113
03:00+8nne4788100 0.0 1018406
06:00+8nne3787100 0.0 1019401
09:00+8nne5680100 0.0 1021695
12:00+8nne4585100 0.1 1022626
15:00+7ene4682100 0.2 1024819
18:00+7ne3684100 0.0 1026592
21:00+7ne487896 0.1 1028579
29 september, wed
wed2900:00+6nne367141 0.0 1029141
03:00+3nne37835 0.0 1030140
06:00+2nne388578 0.0 1031171
09:00+6ne58646 0.0 1031648
12:00+10ne56485 0.0 10311370
15:00+11nne56435 0.0 10301561
18:00+7nne36585 0.0 103193
21:00+5nne356634 0.0 103285
30 september, thu
thu3000:00+4nne33715 0.0 103245
03:00+3n33765 0.0 103237
06:00+3n34805 0.0 103359
09:00+7nne35595 0.0 1033393
12:00+11nne34475 0.0 10331350
15:00+12nne344541 0.0 10321573
18:00+8nne33605 0.0 103226
21:00+7ne33675 0.0 103430
1 october, fri
fri100:00+6ene227117 0.0 103424
03:00+7wnw1163100 0.0 103410
06:00+7nnw2365100 0.0 103556
09:00+9nnw236193 0.0 1035268
12:00+10nnw2360100 0.0 1035428
15:00+12nw235775 0.0 1034708
18:00+10w227074 0.0 103410
21:00+10wnw2268100 0.0 103439
2 october, sat
sat200:00+10nnw2275100 0.0 103449
03:00+10n2379100 0.0 103478
06:00+10nne2282100 0.0 103462
09:00+11nne2380100 0.0 1034165
12:00+13ne3372100 0.0 1034440
15:00+14ne3366100 0.0 1033641
18:00+12ne2379100 0.0 103365
21:00+11e2279100 0.0 103335